sat.trackr.live / text

‹ back to catalog

STARLINK-35770

NORAD 66977 · 2025-288U

PAYLOAD ACTIVE UNKNOWN

§ Identity

Operator
Country
US
Launch date
2025-12-08
Launch site
AFETR
Launch vehicle
Mass (kg)
RCS (m²)

Purposes: comms

External: N2YO · Heavens-Above · Gunter

§ Orbital elements

Epoch: 2026-05-25T04:23:48.827328Z

Period
94.27 min
Inclination
43.0009°
Eccentricity
0.0002244
Mean motion
15.27589218 rev/d
Perigee alt
481.5 km
Apogee alt
484.6 km
Semi-major
6,861.2 km
B*
5.8680e-4
RAAN
311.6721°
Arg perigee
271.1978°
Mean anomaly
88.8617°
Rev number
2,698

§ Raw data

STARLINK-357701 66977U 25288U   26145.18320402  .00015925  00000+0  58680-3 0  99992 66977  43.0009 311.6721 0002244 271.1978  88.8617 15.27589218 26982

JSON: /api/v1/satellites/66977 · /tle

For live sub-satellite position, see the globe view (requires WebGL).

§ Visibility from observer

Set your observer location to see the next 7 days of passes ≥ 10°. The values pass through the URL so the page stays shareable.

No JS? Fill the form by hand. The geolocation button needs JavaScript.